Theta_e
317 316 316 315 315 315 315 314 313 313 313 313 314 314 314 314 314 314 314 314 314 314 314 314 313 313 313 312 312 312 313 313 313 314 313 313 313 313 313 313 314 315 315 315 314 313 313 313 315 316 317 319 320 319 319 323 327 327 328 331 332 333 333 334 334 333 332 331 330 330 330 331 333 334 336 337 336 336 335 333 332 332 333 333 333
317 316 316 315 315 315 314 313 313 313 313 313 314 314 314 313 313 313 313 313 314 314 314 314 314 313 313 313 313 313 313 313 313 313 313 313 313 313 313 313 312 313 314 315 315 315 314 313 313 315 316 317 318 319 319 321 324 325 326 329 332 333 333 333 333 333 332 332 330 330 329 329 333 335 335 336 336 335 334 334 334 334 333 334 334
315 315 315 314 314 313 313 313 313 313 314 313 314 313 314 314 314 314 314 314 314 314 314 314 314 313 313 313 313 313 313 313 313 313 313 313 313 313 313 313 313 312 312 313 314 315 315 314 313 313 315 316 318 319 320 321 322 324 324 326 329 332 333 333 333 333 332 332 331 330 328 328 332 334 333 335 337 335 334 334 335 335 334 334 334
315 315 314 314 314 313 314 313 313 313 313 313 313 314 314 314 314 314 314 313 313 313 313 313 313 313 313 313 313 313 313 313 313 313 312 312 312 312 312 313 313 312 312 312 313 314 315 315 314 313 312 315 317 318 319 320 321 322 323 323 325 329 331 332 333 333 333 333 332 331 329 328 332 334 332 335 337 336 335 335 335 335 334 334 333
315 314 314 314 314 313 314 314 314 314 314 314 313 313 312 312 312 312 312 312 312 312 312 312 312 312 312 312 313 312 312 312 312 312 312 312 312 312 312 312 312 312 313 312 312 312 313 314 315 314 313 313 315 316 318 320 320 321 322 323 324 326 329 331 333 333 334 334 333 333 331 330 333 335 332 334 336 336 335 335 334 334 334 333 332
314 314 314 314 314 314 314 313 313 313 313 313 312 312 311 311 311 311 311 311 311 311 311 311 311 311 311 311 311 311 311 311 311 311 311 311 311 312 312 312 312 313 313 312 312 312 313 314 314 314 314 313 313 314 317 319 321 322 323 324 325 326 328 330 332 333 334 333 333 333 332 332 335 335 333 335 337 335 335 335 334 333 334 333 332
314 314 314 314 313 313 313 313 313 312 312 312 311 311 310 310 310 310 310 310 310 310 310 310 310 310 310 310 311 310 310 311 310 311 311 311 311 311 311 311 312 312 313 313 312 312 312 313 313 314 314 314 313 313 315 318 320 322 323 324 325 325 326 328 330 332 333 333 333 333 332 332 334 334 333 335 336 335 334 335 333 332 332 331 331
313 313 313 313 313 312 313 313 312 311 311 310 310 310 310 309 309 309 310 310 309 309 309 309 309 309 310 310 310 310 310 310 310 310 310 310 310 311 311 311 311 312 312 313 313 312 312 312 313 313 313 314 314 313 314 315 317 320 322 323 324 324 325 326 330 333 333 333 333 333 332 333 333 334 335 335 335 335 335 334 332 331 331 330 329
313 313 313 313 313 313 313 312 311 311 310 310 309 309 309 309 309 309 308 308 308 308 308 308 308 309 309 309 309 309 309 309 309 309 310 310 310 310 310 311 311 311 312 313 313 313 312 312 312 312 313 313 313 314 313 314 316 319 321 323 324 324 325 325 328 331 332 333 333 333 333 333 334 334 335 335 335 335 335 333 331 331 331 330 328
313 313 313 313 313 312 312 311 311 310 309 309 309 308 308 308 308 308 308 308 308 308 308 308 308 308 308 308 308 308 308 309 309 309 309 309 309 309 309 310 310 310 311 312 312 312 312 312 312 312 312 313 313 313 313 313 314 316 318 320 322 324 325 325 325 328 331 333 333 333 333 332 332 333 334 335 335 335 334 332 331 330 330 329 326
312 312 312 312 311 311 311 310 310 309 309 308 308 308 308 308 308 308 308 308 308 308 308 308 308 307 308 308 308 308 308 308 308 308 308 308 308 309 309 309 309 309 310 310 311 311 311 312 312 312 312 313 313 313 313 313 313 313 315 318 320 322 323 323 322 325 330 333 332 333 333 332 332 332 334 335 336 336 334 332 331 330 329 329 326
312 312 312 311 311 310 310 309 309 309 308 308 308 308 308 307 307 307 307 307 307 307 307 307 307 307 307 307 307 307 307 307 307 307 307 307 308 308 308 308 308 309 309 309 310 310 311 311 312 312 312 312 312 313 314 315 314 314 314 315 318 320 321 320 319 320 326 331 332 332 332 332 331 332 334 335 335 335 334 332 331 330 329 329 328
311 311 311 310 310 309 309 309 308 308 308 308 307 307 307 307 307 307 307 307 307 307 307 307 307 307 307 307 307 307 307 307 307 307 307 307 308 308 308 308 308 308 308 308 309 309 310 310 311 311 312 312 312 313 313 313 314 315 315 315 317 317 316 315 315 315 318 325 330 332 331 331 331 332 333 334 334 334 334 332 331 330 329 329 329
310 310 310 309 309 309 308 308 308 307 307 307 307 307 307 307 307 307 307 307 307 307 307 307 307 307 308 308 307 307 307 307 307 307 307 308 308 308 308 308 308 308 308 308 309 309 309 310 310 311 311 311 312 312 311 311 312 313 315 317 318 318 316 313 311 309 309 316 325 330 331 331 331 331 332 333 334 334 334 333 331 330 329 329 329
309 309 308 308 308 308 307 307 307 307 307 307 307 307 307 307 307 307 307 307 307 307 307 307 307 307 307 307 308 308 308 308 307 308 308 308 308 308 308 308 308 308 308 308 309 309 309 309 309 310 310 311 311 311 311 311 312 312 314 317 319 320 320 319 314 307 304 309 320 329 331 330 331 331 332 333 334 333 333 333 332 330 329 328 328
308 308 307 308 307 307 307 306 307 307 307 307 307 307 307 307 306 306 306 306 307 307 307 307 307 307 307 307 307 308 308 308 308 307 307 308 308 308 308 307 307 308 308 308 308 308 308 308 308 309 309 310 310 310 310 310 311 312 313 316 318 319 320 321 319 314 310 308 314 325 331 331 331 331 331 332 333 334 333 333 332 331 329 328 328
307 307 307 307 306 306 306 306 306 306 306 307 307 307 307 306 306 306 306 306 307 307 307 307 307 307 307 307 307 308 308 308 308 307 306 306 306 306 306 307 307 307 307 307 307 308 308 308 308 308 308 308 309 310 310 310 310 310 312 314 317 319 319 320 320 320 318 314 313 318 325 330 332 332 332 332 332 334 334 334 332 330 329 329 328
307 306 306 306 306 306 306 306 306 306 306 306 306 306 306 306 306 306 306 307 307 307 307 307 307 307 307 307 307 307 308 308 307 307 306 306 306 305 305 306 306 306 307 307 307 307 308 308 308 308 308 308 308 309 310 310 309 310 310 311 314 318 321 321 320 320 320 320 318 317 320 327 332 333 332 332 332 333 334 334 332 330 329 329 329
306 306 306 306 306 305 305 305 305 305 305 305 305 305 306 306 306 306 306 306 306 306 306 306 306 307 307 307 307 307 307 307 307 307 307 306 306 305 305 305 306 306 306 307 307 307 307 308 308 308 308 309 309 309 310 310 309 310 310 310 310 315 320 321 321 322 321 321 322 321 321 325 330 332 332 332 333 333 334 334 332 331 329 329 329
305 305 305 305 304 304 304 303 303 303 303 304 304 304 305 305 305 305 305 306 306 306 306 306 306 307 307 307 307 306 306 306 306 306 307 306 306 305 304 304 305 305 306 306 306 307 307 307 308 307 307 308 309 309 309 310 310 309 310 310 308 311 315 317 318 321 322 322 322 322 323 325 328 331 332 332 332 332 333 334 333 331 329 330 330
305 304 304 303 303 303 303 302 302 302 302 303 303 303 304 305 305 305 305 306 306 306 307 307 307 307 306 306 306 306 306 306 306 306 306 306 305 304 304 304 304 304 305 305 305 306 307 307 308 308 307 308 308 309 308 310 310 309 310 310 309 308 309 312 315 319 321 320 320 322 325 327 329 331 332 332 332 332 334 335 333 332 330 330 330
303 303 303 303 302 302 302 302 302 302 302 303 303 304 304 305 305 305 306 306 306 307 307 307 306 306 305 305 305 305 305 305 305 305 305 305 304 304 303 303 303 304 305 305 305 306 306 307 307 308 308 308 308 308 308 309 310 310 310 310 310 310 310 311 314 317 318 319 319 320 324 327 330 331 332 332 332 331 333 335 334 332 330 330 331
302 302 302 302 302 302 302 302 302 302 302 302 303 304 305 305 305 306 306 307 307 307 306 306 305 304 303 303 302 302 302 302 302 303 304 304 304 303 303 303 303 303 304 304 304 305 306 307 307 308 308 308 308 309 308 308 309 309 309 309 310 311 312 313 316 317 317 317 318 320 323 328 330 332 332 332 332 331 332 333 334 333 331 330 331
302 302 302 302 302 302 302 302 301 301 302 303 304 305 305 305 306 306 306 307 306 305 304 303 302 301 300 300 299 299 298 298 298 299 301 301 302 302 302 302 302 303 303 304 304 305 305 306 307 308 308 308 309 309 309 309 308 308 308 308 309 309 311 315 318 319 318 316 316 320 323 326 329 331 331 331 332 331 331 332 333 333 332 331 331
302 302 302 301 301 301 301 301 301 302 303 303 304 305 305 305 306 306 306 306 304 303 302 301 300 299 298 297 297 296 296 296 296 296 297 298 298 299 300 301 301 302 302 303 303 304 305 306 306 307 308 308 308 309 309 309 309 308 308 309 308 308 310 315 318 320 319 316 315 316 318 323 328 330 330 331 331 332 332 333 333 333 332 331 332
302 301 301 301 301 301 301 301 301 302 303 304 305 305 305 305 305 306 306 304 302 301 301 299 298 297 296 296 295 295 295 295 295 295 296 296 297 297 298 300 300 301 301 302 302 303 304 305 306 307 308 308 308 309 309 309 309 309 309 310 309 307 309 313 317 319 319 317 315 313 315 322 329 331 331 331 332 332 332 333 334 334 333 332 332
301 301 301 300 300 300 301 301 302 302 303 304 304 305 305 305 305 305 304 302 301 300 300 298 297 296 295 295 294 294 294 294 294 294 295 296 296 297 297 298 299 300 301 301 302 302 303 304 305 306 307 308 308 309 309 309 308 308 309 310 310 308 308 310 311 313 313 313 311 309 311 320 328 330 330 332 333 332 331 332 333 334 333 332 333
301 300 300 300 300 300 301 301 302 303 303 304 304 304 304 305 304 304 302 301 301 300 298 297 296 295 294 294 294 294 294 294 295 296 296 296 296 297 297 298 299 300 300 300 301 302 302 303 304 305 306 307 308 308 309 308 308 308 309 309 310 310 309 308 307 306 306 306 305 303 306 317 326 330 331 332 333 332 332 332 333 333 334 333 333
300 300 300 300 300 301 301 301 302 302 303 303 304 304 304 304 303 303 302 302 300 298 297 296 294 294 294 294 294 294 294 297 300 301 301 301 298 297 297 298 299 300 300 300 301 302 302 303 304 305 306 307 307 308 308 308 308 308 308 309 309 310 311 310 308 306 304 303 303 301 303 315 327 332 332 331 332 332 333 333 333 333 333 332 332
300 300 300 300 300 300 300 301 302 302 303 303 304 303 304 304 303 303 302 302 300 298 296 295 294 294 294 295 295 295 296 300 304 304 303 303 301 299 297 298 299 300 300 300 301 302 302 303 304 305 306 307 307 308 308 309 310 310 309 308 309 310 313 313 312 309 304 303 302 301 304 315 327 331 332 331 331 332 332 333 333 333 333 332 332
299 299 299 299 300 300 300 301 302 302 303 303 303 303 303 303 304 304 303 301 300 299 296 294 294 294 295 295 295 296 300 303 304 302 301 301 301 300 298 297 299 300 300 301 301 302 303 303 304 306 307 307 308 308 308 309 310 311 312 311 310 311 314 316 314 309 305 303 302 301 307 318 327 329 329 331 332 332 332 333 333 332 331 331 332
299 298 298 299 300 300 300 301 302 302 303 303 303 302 302 302 303 304 303 302 300 298 296 295 294 295 295 295 295 297 302 305 304 301 300 298 298 299 298 297 298 300 300 301 302 302 303 304 305 306 307 308 308 308 308 309 311 312 315 316 314 312 314 315 313 308 305 303 301 302 310 321 328 330 329 331 332 333 332 332 333 332 331 331 331
298 298 298 299 299 300 301 301 302 302 302 302 302 302 301 300 301 302 302 301 300 299 298 296 294 294 296 297 297 298 301 305 304 301 299 298 297 297 297 298 299 300 301 302 302 302 303 304 306 307 307 308 308 308 308 310 311 313 315 318 318 315 314 314 311 307 305 303 301 303 310 320 327 330 331 331 332 332 332 332 332 332 332 332 332
298 298 298 299 300 300 301 301 301 302 302 301 301 301 300 300 301 300 299 299 299 299 298 296 294 294 296 297 297 298 301 304 305 302 299 298 297 297 297 298 299 300 301 302 302 303 303 304 306 307 307 308 308 308 308 310 312 314 316 318 319 318 316 313 310 306 303 302 301 304 312 322 328 330 330 332 332 332 332 332 333 332 332 332 332
297 298 299 299 300 300 300 301 301 301 301 301 300 300 300 301 301 299 298 297 296 297 297 295 294 294 295 296 297 299 301 303 305 304 301 299 298 298 298 299 300 301 301 302 303 303 304 305 307 307 307 308 308 309 308 310 312 315 317 319 319 318 315 312 308 304 302 302 302 303 311 323 330 331 331 332 333 332 332 332 332 332 332 332 332
297 298 299 299 299 299 299 300 301 301 300 300 300 300 300 301 300 299 298 297 296 295 295 294 293 294 296 297 297 299 300 302 304 305 302 300 299 299 299 299 300 301 302 303 304 305 305 306 307 307 308 308 308 308 308 310 313 315 317 318 318 316 314 310 306 303 301 302 302 304 312 322 328 331 331 331 332 332 332 332 331 331 332 332 331
297 297 298 298 298 299 299 300 300 300 301 301 300 300 301 301 300 299 298 297 296 295 295 294 293 294 295 296 296 297 299 302 305 305 304 302 301 301 301 301 302 302 303 304 305 306 306 307 307 308 308 309 309 309 309 312 314 316 317 317 315 313 312 309 305 302 302 302 303 309 318 325 329 331 331 332 332 331 331 331 331 331 331 331 331
297 297 298 298 298 299 299 300 300 301 301 301 300 300 300 300 299 298 297 296 295 295 295 294 293 293 293 293 294 295 299 303 305 305 304 305 304 304 304 304 304 305 305 306 306 306 307 307 307 308 309 309 310 310 312 314 316 317 316 314 312 312 311 307 304 302 302 304 309 318 325 329 331 331 331 332 332 332 331 331 331 331 332 332 332
296 297 297 298 298 299 300 300 300 301 302 301 300 300 301 300 299 298 296 295 295 295 295 295 294 293 292 292 293 294 296 299 300 300 301 303 305 305 305 306 306 306 306 306 306 306 307 307 307 308 310 311 312 312 314 315 316 315 313 311 309 309 307 305 305 307 306 309 318 327 330 331 331 331 331 331 331 331 332 332 332 333 333 332 332
296 297 297 298 298 299 300 299 299 300 301 300 300 301 301 299 298 297 296 295 295 295 296 295 294 293 293 293 292 293 294 295 296 297 298 301 304 305 306 306 307 307 307 307 307 307 308 309 309 310 312 314 315 315 315 315 313 312 311 308 306 305 303 303 307 310 312 317 326 331 332 332 332 331 331 332 332 332 332 332 332 332 332 331 331
297 297 297 298 299 300 299 298 298 300 300 300 300 301 300 299 298 297 296 295 295 295 296 296 295 294 294 294 293 293 293 293 294 295 297 299 301 303 304 306 307 308 309 309 309 308 309 311 312 313 314 315 316 315 315 314 313 312 311 308 305 303 302 304 308 314 319 325 330 332 332 332 332 331 331 331 331 331 332 332 332 331 331 330 330
296 296 297 298 299 299 298 298 300 301 301 300 300 300 299 299 298 296 296 296 295 295 295 296 296 296 295 295 295 294 293 293 294 294 295 297 299 300 301 303 306 307 309 309 310 310 310 312 312 313 313 314 313 312 312 312 312 312 312 310 306 304 304 308 314 321 326 328 331 332 332 332 331 331 331 331 331 331 332 332 331 331 330 330 331
297 297 298 298 298 298 298 299 301 301 301 300 299 299 298 298 297 297 297 297 295 295 295 296 296 296 295 295 295 295 294 294 294 294 294 295 296 298 299 300 301 303 305 307 308 308 309 310 311 311 310 310 309 309 308 308 310 313 314 314 313 313 315 318 321 326 329 330 331 332 332 331 331 331 331 331 331 331 331 332 331 331 330 330 331
298 298 299 299 298 298 299 300 301 301 301 300 299 298 298 297 296 297 298 298 297 296 296 295 296 296 295 294 294 295 295 295 294 294 294 294 295 296 297 298 299 300 301 303 304 306 308 309 309 310 310 311 311 311 310 311 313 317 319 319 320 322 324 325 326 327 329 330 332 332 331 331 331 332 331 331 331 331 331 331 331 330 330 331 331
300 300 300 299 298 299 300 301 301 301 301 299 298 297 297 296 297 297 298 298 298 297 297 296 296 296 295 295 294 294 295 296 296 295 296 296 295 295 296 297 298 299 300 300 301 303 305 307 308 310 312 313 314 316 317 318 320 322 323 323 324 325 326 327 328 329 329 329 331 331 331 331 332 331 331 331 331 331 331 331 330 330 330 330 330
301 302 301 299 299 299 300 300 300 300 299 298 297 297 296 297 297 298 298 298 298 298 298 297 297 296 296 295 294 293 294 295 296 297 297 297 297 297 297 297 298 299 300 300 301 302 302 304 306 308 310 312 314 316 319 320 322 323 324 324 325 326 327 328 329 329 329 329 330 331 331 331 331 331 331 330 330 331 330 330 330 330 330 330 330
302 302 301 300 300 299 299 299 299 298 297 297 297 296 296 297 297 298 298 298 298 298 298 298 298 297 296 296 295 294 294 294 295 297 298 298 298 299 299 298 298 298 299 300 301 301 302 303 304 305 307 310 312 315 316 318 320 321 322 323 325 326 327 328 329 329 329 329 329 329 330 331 330 330 330 330 330 330 330 329 329 329 329 329 329
302 302 302 302 301 301 300 299 298 297 297 297 297 296 297 297 297 297 298 298 298 298 298 298 298 298 298 297 296 296 295 295 295 296 297 298 299 299 299 300 300 299 299 300 300 301 301 302 303 304 306 308 309 311 311 313 314 316 317 320 323 325 327 328 328 328 328 328 328 329 329 329 329 329 329 329 329 329 329 328 328 327 327 327 326
301 301 302 302 301 301 300 299 298 297 297 298 298 298 297 297 297 296 297 297 297 297 297 297 297 297 298 298 298 298 297 297 296 296 296 297 298 299 300 300 300 300 300 300 300 300 301 301 302 303 304 305 306 307 308 309 311 311 312 314 317 320 323 326 327 327 327 328 328 328 328 327 326 327 328 328 327 327 327 326 325 325 325 324 323
300 300 300 300 300 300 300 299 299 298 298 299 298 297 296 295 295 294 295 295 296 296 295 295 295 296 296 297 297 298 298 298 297 297 297 297 298 298 299 300 300 301 301 301 301 300 300 300 300 301 301 302 303 304 305 307 308 310 311 312 313 315 318 322 323 324 325 325 325 325 325 324 324 324 325 324 324 324 324 323 323 323 323 322 320
299 299 299 299 299 299 299 298 298 298 298 298 296 294 293 292 292 292 291 291 292 292 292 292 292 292 293 293 294 296 297 297 298 298 298 298 298 298 299 299 300 300 301 301 301 301 301 301 300 300 300 301 301 302 302 304 305 307 309 311 312 314 315 317 318 319 320 320 320 321 321 321 321 321 320 320 320 321 321 321 321 321 320 319 318
Wind_Speed
16 16 16 16 17 17 18 20 21 23 24 25 26 27 28 29 31 32 32 33 33 34 34 35 35 35 35 35 35 35 35 34 33 33 32 32 32 31 31 29 28 28 27 27 26 26 27 28 27 26 26 25 26 28 29 28 27 25 25 27 29 30 29 29 31 32 32 29 26 24 21 18 17 22 28 28 25 24 23 23 21 21 21 21 22
15 15 16 16 17 18 19 21 22 24 26 27 28 29 30 31 32 33 33 33 32 32 33 34 35 36 36 36 36 34 34 33 33 33 33 33 33 32 31 31 31 29 28 29 29 27 26 27 28 26 26 26 26 27 29 30 29 26 24 26 29 30 30 32 31 31 32 31 29 25 24 22 19 22 29 28 26 26 25 24 22 22 22 22 24
16 16 17 17 17 18 20 22 24 26 27 28 29 30 31 31 32 32 34 34 34 34 34 34 35 35 36 37 37 36 35 34 34 34 34 34 35 35 34 33 33 31 30 29 29 28 27 27 28 27 26 26 26 26 28 30 31 29 26 25 27 28 30 32 32 32 32 31 29 26 24 22 20 22 25 24 25 26 25 24 24 24 23 24 26
15 15 16 17 18 20 23 25 26 28 28 30 31 31 32 33 34 34 34 35 34 34 35 35 36 36 36 37 37 37 37 38 38 38 37 36 36 36 35 35 34 33 31 29 29 28 28 29 29 28 27 27 27 26 27 29 32 31 27 25 26 27 28 31 31 31 31 29 29 27 23 21 21 23 25 24 24 25 25 26 25 24 24 25 27
14 15 17 19 21 23 25 26 28 29 29 31 32 32 33 32 32 31 31 32 32 32 32 32 33 34 35 36 37 37 37 37 37 38 38 37 36 35 35 35 35 34 33 33 31 30 30 30 29 28 28 28 27 26 26 28 31 33 30 26 26 26 27 30 31 31 29 28 29 27 22 20 20 23 25 26 27 25 25 26 25 25 27 27 27
16 17 18 20 22 23 25 27 29 29 30 31 30 30 30 28 27 28 29 30 30 30 31 31 31 31 32 33 34 35 36 36 35 35 36 37 37 36 35 35 35 34 34 33 33 31 30 31 30 29 28 28 28 27 26 26 29 31 31 28 26 26 26 27 30 30 28 27 28 26 22 20 20 22 25 29 31 28 26 25 25 27 28 26 28
17 18 19 22 24 26 28 29 29 30 29 29 28 27 27 27 28 29 29 29 29 29 29 30 30 31 31 32 32 33 34 35 36 36 35 35 36 36 36 37 36 34 32 32 32 32 31 31 31 30 29 28 29 29 27 26 26 29 30 29 26 25 25 25 27 28 27 26 26 26 24 22 21 23 26 30 31 28 27 29 30 28 25 22 26
18 20 22 25 27 27 28 28 28 28 28 27 27 28 29 29 29 28 28 28 29 29 30 30 31 31 32 33 33 34 35 36 37 37 36 35 34 34 34 35 36 35 33 32 30 30 31 32 31 31 31 30 29 29 28 26 25 27 29 30 27 25 23 23 24 27 27 26 26 26 25 23 22 23 26 30 31 29 29 33 33 31 26 20 24
20 22 24 25 25 25 26 26 26 25 25 26 27 28 29 28 27 27 28 29 30 30 31 31 32 33 34 34 35 36 36 38 38 37 37 37 36 35 34 33 34 34 33 32 30 30 31 32 33 32 31 31 30 30 30 29 26 25 26 29 29 26 23 22 22 24 27 27 26 25 24 22 22 25 27 30 33 33 33 33 32 32 28 22 23
20 21 21 22 23 24 24 24 24 25 26 27 27 28 28 28 29 30 30 30 31 32 32 32 32 33 35 36 36 37 37 37 37 37 37 38 37 38 38 37 36 35 33 32 32 31 30 31 32 32 31 32 31 31 31 32 31 28 25 26 27 25 23 22 20 21 25 27 26 26 25 24 25 28 30 30 33 35 35 33 31 31 29 27 26
19 20 21 21 22 23 23 24 25 26 27 26 26 28 30 30 30 30 31 31 32 32 32 33 34 35 36 36 37 38 38 38 38 38 38 39 38 38 39 40 39 38 36 35 34 33 32 31 31 32 32 31 31 30 30 30 32 33 30 27 26 26 27 25 22 21 25 29 28 27 27 27 27 29 31 32 34 37 37 33 31 33 33 32 31
20 20 21 21 21 22 23 24 25 25 26 27 28 29 30 30 29 30 31 32 33 34 35 36 37 37 38 39 39 39 40 40 40 40 40 40 39 40 42 43 43 43 41 39 37 35 34 32 31 32 32 31 30 30 29 27 27 30 33 32 30 31 32 31 27 24 25 28 29 28 29 30 29 30 32 34 34 37 38 34 31 34 36 35 34
19 19 20 20 21 22 23 25 26 26 27 28 28 29 30 31 31 32 33 34 34 35 37 38 39 39 39 40 40 41 41 41 41 41 41 41 41 43 45 46 46 46 45 42 39 38 36 35 34 34 33 32 31 31 31 30 28 27 29 31 34 35 36 36 32 27 25 26 27 28 29 30 31 32 33 34 35 38 40 37 33 34 36 35 34
18 19 20 20 21 22 24 25 26 27 28 29 29 31 32 31 32 32 33 34 35 35 36 37 37 38 37 38 39 41 42 42 41 40 40 42 42 43 45 45 45 46 46 43 41 41 40 38 36 37 37 35 33 32 31 31 30 28 27 28 30 32 34 36 35 32 29 27 26 26 28 29 31 32 34 36 38 40 42 41 37 36 35 34 32
19 19 20 21 21 23 24 26 27 28 29 30 30 31 31 31 33 33 33 34 34 35 36 36 37 38 38 39 40 40 41 41 40 40 40 42 41 41 42 42 43 45 46 44 42 41 42 42 40 39 40 38 36 33 32 30 29 29 28 28 29 29 29 30 32 33 32 29 27 27 29 30 30 31 33 36 39 40 41 42 40 35 33 31 29
19 20 21 22 23 24 25 27 28 29 30 30 31 31 31 32 33 34 34 35 35 36 36 37 38 40 41 41 43 44 44 43 43 43 43 44 44 45 46 47 48 48 47 47 44 42 41 42 43 43 43 42 39 36 34 34 34 33 31 27 27 30 31 29 28 30 31 30 30 30 31 32 32 31 32 35 38 40 41 41 39 35 33 31 28
20 20 21 22 23 24 26 27 29 30 31 31 32 31 31 32 32 32 33 35 36 37 38 39 41 42 42 43 45 46 46 43 43 45 44 43 44 47 49 51 52 52 50 47 46 45 43 42 43 44 46 46 43 39 35 34 36 38 35 30 26 27 30 30 28 28 29 29 29 30 31 33 33 32 31 32 37 40 42 42 39 37 37 33 30
20 21 22 23 24 25 27 28 29 29 30 30 31 31 31 31 32 31 33 34 35 37 39 41 42 43 44 45 44 44 45 46 47 49 48 45 44 45 47 50 51 53 53 50 46 44 43 43 42 43 46 47 45 41 37 35 37 39 39 36 31 27 27 27 27 26 26 26 27 29 30 32 33 33 32 32 37 40 42 43 41 38 38 35 33
20 22 23 24 25 26 27 29 30 30 29 29 30 31 31 32 32 32 32 35 37 40 43 44 44 44 46 48 46 46 50 53 54 55 55 52 48 46 47 49 51 51 52 51 49 46 43 43 44 45 46 46 44 42 39 37 38 40 39 39 37 34 29 26 25 24 24 24 26 28 30 31 32 33 32 32 35 38 40 44 44 41 39 36 35
21 23 24 25 26 26 27 28 29 29 29 29 30 30 31 32 33 33 34 37 40 42 43 45 47 47 48 49 50 51 54 55 56 57 58 55 51 48 47 50 53 52 49 49 51 51 47 43 43 46 47 46 45 45 42 38 38 40 39 38 39 39 35 28 25 24 22 22 23 26 29 31 33 34 34 35 35 36 40 44 45 43 41 38 36
23 24 23 24 25 25 25 27 28 28 28 28 28 29 29 29 31 33 35 39 42 44 43 43 45 47 48 49 52 54 55 56 57 57 57 56 54 51 48 50 52 52 51 49 49 50 50 47 44 45 47 46 46 47 45 41 39 40 40 37 37 38 37 32 27 26 25 22 22 24 26 30 33 34 35 36 35 35 39 42 43 43 43 40 37
23 23 23 24 25 26 27 28 29 29 28 27 27 28 28 29 32 35 37 41 43 44 43 43 44 47 48 49 51 52 53 55 57 57 58 58 56 52 49 50 50 50 51 51 48 46 47 48 46 44 44 45 44 44 45 45 43 42 42 39 35 34 35 32 28 28 28 25 23 24 25 28 31 34 35 36 36 35 37 40 43 44 44 41 37
23 24 25 26 27 27 28 28 28 28 27 26 27 28 29 30 33 36 39 40 39 39 41 43 45 47 48 49 49 50 51 51 52 54 54 55 54 51 50 49 49 50 51 52 51 47 45 46 45 42 42 43 42 41 42 45 45 45 44 42 38 35 33 31 30 31 30 28 25 25 25 26 29 33 36 36 36 37 38 41 43 43 43 41 36
24 26 27 28 27 27 26 26 26 27 26 25 27 28 29 31 34 37 37 36 37 39 42 43 44 45 48 50 50 50 50 50 51 51 51 50 50 49 50 49 48 49 51 52 52 49 47 46 46 43 41 41 40 40 40 41 43 44 44 42 41 40 36 34 33 32 32 31 29 27 26 26 27 30 33 34 35 36 37 41 44 44 44 43 37
26 27 27 27 27 26 25 25 26 25 25 25 27 28 30 32 35 35 35 37 39 40 40 41 42 45 48 50 52 51 50 49 50 51 52 52 51 51 51 51 49 48 50 52 51 50 49 47 47 45 41 39 40 40 39 38 39 40 39 39 39 41 41 39 37 34 33 32 31 30 28 26 26 28 29 31 33 36 38 40 43 44 44 43 38
26 27 27 26 26 25 25 26 25 24 24 25 26 27 30 33 34 34 36 39 39 37 38 42 45 48 49 50 51 51 50 48 48 48 48 49 51 53 54 55 53 50 50 52 51 49 48 47 47 47 42 38 39 40 38 36 36 35 35 35 36 39 43 44 41 39 36 34 31 30 28 27 27 28 28 30 33 36 39 40 42 42 43 43 40
27 28 26 25 25 24 24 25 24 24 24 24 25 28 31 31 33 35 37 38 37 36 40 45 48 48 48 47 48 50 49 48 48 47 46 45 48 50 53 55 55 52 50 50 49 49 48 46 47 48 46 41 39 38 36 34 36 36 36 35 35 37 41 45 45 43 41 37 33 30 28 27 28 29 30 32 33 34 38 40 42 42 43 43 40
28 27 25 23 23 23 23 23 22 23 24 25 27 30 31 31 33 34 33 34 37 40 42 45 47 47 45 45 46 50 51 49 48 48 47 46 47 48 50 53 55 55 52 50 47 46 47 46 45 47 48 45 41 38 35 33 35 38 38 37 37 36 37 41 45 45 43 40 36 32 29 29 29 31 33 35 35 35 37 40 42 43 43 41 39
25 23 22 21 22 22 22 22 22 23 24 27 30 31 29 30 32 32 30 33 37 39 41 43 45 45 44 43 44 49 53 51 45 42 42 43 45 46 48 51 53 53 52 49 45 42 43 44 44 46 48 47 43 40 38 34 33 37 38 37 37 38 38 40 41 42 42 39 35 33 31 31 31 34 37 38 35 36 39 40 42 43 42 40 39
22 20 20 20 21 22 22 22 22 22 25 28 31 31 30 29 29 28 31 35 36 36 38 40 42 42 42 41 40 43 45 43 38 36 35 35 38 43 47 49 49 48 47 46 43 39 38 41 43 45 47 47 42 40 39 35 32 33 36 37 37 37 39 39 38 37 37 36 34 33 33 32 31 34 38 37 35 37 40 41 42 44 41 40 39
20 20 20 21 21 22 22 22 22 24 26 28 30 32 33 32 28 27 31 35 36 37 40 41 40 37 36 37 38 37 35 33 33 34 32 30 31 37 43 46 45 43 42 42 43 40 37 38 41 43 43 42 40 39 38 35 32 30 32 34 37 37 37 37 35 34 34 35 34 34 33 32 31 33 34 35 36 40 42 42 43 43 41 40 40
20 21 21 21 21 21 21 22 23 24 26 28 30 33 34 32 30 31 34 36 37 38 41 42 40 35 32 32 34 34 30 28 30 30 25 20 19 25 37 44 43 40 39 40 43 43 39 37 39 41 40 37 36 38 37 34 32 31 30 32 35 37 38 37 34 32 34 35 35 35 34 32 31 33 36 37 39 42 43 43 44 44 41 40 41
18 20 20 19 20 20 21 21 22 24 26 28 32 33 30 28 31 35 38 39 39 39 40 41 41 37 31 29 30 30 27 25 25 25 19 9 4 17 32 39 38 38 39 39 39 40 40 39 39 40 39 35 33 35 36 33 31 31 32 32 33 35 37 37 34 33 34 35 35 36 36 33 31 33 36 39 41 43 43 43 45 45 42 41 42
17 18 17 17 18 20 19 20 22 24 25 28 31 30 26 25 30 35 38 42 43 43 43 43 43 40 33 29 29 29 25 21 20 20 17 11 9 18 28 34 33 34 36 35 34 36 40 40 38 38 38 35 32 32 34 33 30 31 33 33 31 30 32 33 34 34 34 34 35 36 34 32 33 36 38 41 43 43 44 44 45 44 42 42 42
17 16 15 16 17 18 19 20 21 23 26 29 29 26 22 24 28 32 35 39 43 45 46 46 47 43 35 31 30 28 25 20 16 15 15 14 15 20 26 30 31 31 33 32 31 34 38 38 35 34 36 34 31 31 33 32 30 30 31 31 29 28 28 30 32 34 34 34 35 36 34 34 36 39 41 43 45 46 46 46 45 44 43 43 42
15 14 14 15 16 18 19 19 19 22 26 27 23 19 19 23 27 30 33 36 39 42 44 46 48 44 36 31 30 29 28 23 16 13 13 14 18 22 27 30 30 29 32 31 30 33 36 35 31 30 31 30 29 29 31 31 29 29 30 29 29 29 29 30 31 32 33 33 33 34 34 35 37 39 40 42 44 45 46 46 45 44 44 43 43
13 13 13 15 16 17 18 17 18 22 24 20 16 17 20 23 26 28 32 35 37 40 42 45 48 47 41 37 34 32 29 23 16 15 16 17 19 21 24 27 28 28 30 30 29 31 33 32 29 27 26 27 27 29 30 30 29 29 30 29 30 31 32 31 30 30 31 32 33 34 35 36 39 41 41 42 43 43 43 44 45 45 44 44 43
13 13 12 13 15 16 16 16 18 20 18 15 15 18 20 22 25 28 32 34 36 38 40 42 45 47 46 44 40 37 32 25 20 21 22 22 22 22 24 26 27 28 29 27 26 27 28 27 28 26 24 24 26 28 29 29 28 28 29 31 33 34 32 30 29 30 31 32 33 35 37 40 43 44 43 44 44 44 45 46 47 46 45 44 42
12 11 9 11 14 16 15 15 16 16 14 14 17 18 19 22 25 28 32 34 36 37 39 41 43 44 45 46 45 43 41 36 32 31 30 27 25 24 24 24 24 24 24 24 25 25 24 25 29 30 27 26 28 29 29 29 29 28 29 31 33 34 33 31 29 30 32 33 35 38 41 45 47 45 44 45 46 46 48 48 47 45 44 42 40
12 9 9 12 16 15 13 12 14 14 14 15 16 17 18 21 25 28 31 34 35 36 37 39 41 43 44 45 46 46 47 45 41 37 35 32 28 25 23 21 20 20 20 20 23 24 22 23 28 29 26 25 29 30 29 30 30 29 29 30 30 31 32 31 30 31 33 35 38 41 44 45 46 46 45 46 47 47 47 46 44 42 40 39 39
10 7 9 13 14 12 12 12 12 12 12 13 15 16 18 21 25 28 31 32 34 36 36 37 39 41 43 44 45 47 49 49 45 41 38 35 31 28 25 21 19 17 15 16 19 22 21 20 21 22 21 22 25 26 26 26 27 28 29 29 29 29 30 30 31 33 35 37 41 46 47 46 45 46 46 47 48 47 44 42 41 40 38 37 38
8 7 10 12 12 13 13 12 11 10 11 13 15 17 19 23 25 27 30 31 33 35 36 36 37 38 41 43 45 47 49 50 49 46 43 38 34 30 27 23 19 15 12 11 13 16 19 19 19 20 20 20 22 24 24 24 25 26 27 28 27 28 30 31 33 35 37 39 42 47 48 46 45 45 44 45 46 45 43 41 40 39 39 39 38
7 8 10 11 12 14 13 11 11 11 12 14 17 19 21 24 26 26 28 31 33 35 37 38 38 38 40 42 45 47 49 50 51 50 48 44 40 35 32 28 25 21 16 13 12 12 14 16 18 19 20 21 23 24 25 25 25 25 26 27 28 28 30 33 35 37 39 42 44 44 44 44 44 42 41 43 44 44 42 41 40 39 40 40 39
7 8 10 12 11 12 13 14 13 13 14 16 19 21 22 23 25 26 28 30 32 34 36 38 38 39 41 43 45 47 48 49 50 51 51 50 47 43 40 36 33 30 27 23 20 17 15 14 14 15 17 19 21 22 23 24 23 23 25 27 28 29 32 35 37 38 38 41 43 42 42 43 42 40 40 41 43 43 42 42 41 40 40 40 38
9 10 13 13 10 11 14 15 15 15 16 18 21 23 23 22 23 25 28 30 31 33 35 37 38 40 41 43 45 46 47 47 49 51 52 52 51 49 47 44 41 38 37 35 31 28 24 21 19 18 18 19 20 22 23 24 25 26 27 28 29 30 33 36 38 37 37 39 40 40 41 42 42 41 40 41 42 42 41 41 41 41 40 39 37
11 12 13 12 10 11 13 15 16 18 19 20 22 22 21 21 23 26 27 28 30 32 33 35 37 39 41 43 44 46 46 46 47 48 50 51 52 51 50 50 49 47 45 43 40 38 35 31 28 25 23 22 22 23 25 26 28 30 32 32 32 33 35 38 38 38 37 39 40 41 42 42 42 42 41 41 41 41 41 41 41 40 39 38 38
14 14 13 12 11 12 13 15 17 18 19 20 19 19 19 21 24 26 27 28 30 31 33 34 36 38 40 42 43 44 46 47 47 46 47 48 49 50 50 51 52 52 51 50 48 46 43 41 37 33 29 25 23 23 24 25 28 31 32 34 35 36 37 38 38 37 36 36 39 41 41 40 40 40 40 41 41 41 41 41 42 42 40 38 38
18 18 16 15 14 14 14 15 15 16 17 17 18 19 20 23 25 27 27 28 29 30 32 33 35 36 38 40 41 43 44 45 46 46 46 45 45 46 47 48 49 51 52 52 51 51 50 48 46 42 37 32 28 26 25 24 26 29 32 35 37 38 38 38 37 36 35 35 36 38 39 39 40 41 42 42 42 42 41 40 40 41 41 41 41
21 20 18 17 18 18 18 17 16 17 19 20 21 23 25 26 26 27 26 26 28 29 31 32 33 35 36 37 39 40 41 43 45 46 46 45 44 44 43 44 45 47 49 50 50 50 50 49 49 48 45 42 38 36 34 32 30 30 31 34 37 40 41 41 39 37 36 36 37 38 39 39 41 43 43 43 43 42 41 40 39 40 41 42 41
25 25 24 23 24 25 25 24 24 24 23 24 25 26 27 26 26 26 26 26 27 28 30 31 32 33 35 36 36 37 39 40 42 43 44 44 44 43 43 43 43 44 45 46 47 48 48 48 47 46 46 45 43 42 40 38 37 35 34 34 35 38 41 43 42 41 40 40 41 42 43 43 43 44 44 44 45 45 44 43 43 42 42 41 40
21 25 27 26 26 27 28 27 27 26 25 25 27 27 26 25 24 24 25 26 27 27 28 29 30 31 33 34 35 36 37 38 38 39 40 41 42 42 43 43 43 43 43 43 43 43 44 45 45 45 45 46 45 45 43 41 39 37 36 35 35 36 38 40 40 40 39 40 41 42 43 43 43 43 43 43 44 44 44 43 42 41 40 38 37
Wind_Direction
246 251 255 260 264 267 271 275 278 281 282 282 282 281 281 281 281 282 282 281 281 281 281 281 281 280 280 282 281 280 282 282 281 282 283 282 282 283 283 282 281 281 282 281 280 276 272 271 271 270 269 270 271 272 274 274 272 269 264 257 254 251 248 249 255 259 260 259 258 256 251 250 244 226 220 220 213 204 206 210 209 210 209 203 203
249 255 259 263 266 269 272 276 279 281 283 283 282 282 282 281 281 280 278 278 279 280 280 280 280 278 278 279 280 280 282 282 280 280 280 279 279 279 280 281 279 277 277 279 279 278 274 270 270 269 267 266 267 268 271 272 273 272 269 261 256 252 249 248 252 256 259 257 255 255 252 250 243 223 218 217 208 203 205 205 202 205 206 199 198
249 255 260 263 266 270 273 276 279 281 282 282 281 281 281 281 280 278 277 277 276 276 277 276 276 276 274 274 275 277 278 278 277 277 278 279 279 277 278 279 278 275 274 276 276 276 275 272 270 269 268 266 263 264 267 270 271 270 269 267 261 255 252 250 249 252 256 255 252 253 250 246 237 221 216 213 206 205 206 202 200 202 204 201 198
258 261 263 265 268 271 274 277 279 280 279 278 277 277 276 276 277 277 278 279 278 277 278 277 275 275 274 273 272 273 275 276 274 273 274 277 279 278 276 275 276 275 272 271 272 274 274 273 271 269 267 266 263 262 263 266 269 269 269 269 264 259 255 253 249 248 252 253 252 253 249 243 234 220 214 209 204 207 207 202 200 200 201 203 200
262 264 266 269 273 275 277 279 279 278 277 276 276 277 280 282 282 280 279 279 279 278 278 279 277 276 275 275 273 272 273 276 276 273 272 274 277 278 276 273 273 274 272 269 269 271 272 271 271 270 268 266 264 261 262 263 266 268 270 268 265 262 259 254 249 246 249 253 253 252 247 241 229 216 213 211 204 205 209 202 196 197 199 201 200
264 267 269 272 274 276 278 278 277 277 277 278 281 284 286 285 281 280 280 280 279 278 278 278 277 276 276 277 276 274 273 275 276 274 273 274 273 275 276 274 272 273 273 269 265 265 267 269 269 269 268 266 263 261 262 263 264 266 269 269 266 264 263 258 251 246 248 252 250 248 244 238 226 213 212 211 203 202 204 194 189 198 203 202 198
266 267 268 270 273 275 277 276 276 277 280 282 284 285 283 281 280 280 281 281 279 278 279 278 278 277 277 277 276 275 275 274 273 273 273 274 274 274 274 273 272 273 273 271 265 262 262 265 266 267 266 264 264 262 261 264 266 266 269 271 268 264 264 264 257 247 245 247 246 245 243 239 233 221 211 205 201 203 199 186 184 194 201 202 197
266 268 270 273 276 276 275 275 277 280 282 282 280 278 277 280 282 281 280 280 279 279 279 279 278 277 277 277 276 275 275 273 272 272 273 274 275 276 275 274 273 273 273 271 266 261 259 260 263 266 265 263 263 261 259 260 264 267 269 269 268 266 263 263 259 248 242 243 245 245 240 234 228 219 206 198 197 200 195 187 188 194 196 198 197
269 271 273 274 274 274 274 277 280 280 279 278 278 279 280 282 282 281 280 280 280 280 280 279 278 277 277 277 276 276 275 273 272 273 273 273 274 274 274 274 273 273 274 272 268 264 262 260 260 263 264 263 263 262 259 254 255 262 269 267 264 265 262 260 259 249 240 238 242 241 232 226 221 212 204 199 199 200 193 188 194 198 194 192 195
273 273 273 272 273 275 277 279 279 278 279 280 282 284 285 284 283 283 282 280 280 281 280 278 277 277 277 276 275 274 274 273 273 273 273 272 273 273 272 273 273 272 272 273 270 266 263 260 258 258 261 262 263 263 261 255 250 251 262 268 265 261 259 259 258 250 238 231 233 234 228 224 221 215 209 204 202 200 192 188 195 198 193 189 190
273 272 273 274 276 278 278 278 279 281 282 283 284 285 285 283 282 281 281 280 280 279 278 278 277 276 276 276 275 274 273 273 273 273 273 272 272 272 272 272 272 270 270 271 271 268 265 261 258 256 258 261 262 262 262 260 254 248 249 259 265 263 260 258 256 251 240 230 228 230 228 222 217 215 213 208 202 197 191 189 197 198 193 192 191
274 275 276 278 280 280 281 281 282 283 283 283 284 285 285 283 281 281 281 280 280 279 278 278 277 277 276 275 274 273 273 272 272 272 272 271 270 270 270 270 269 269 269 268 268 267 264 260 257 255 255 257 257 258 260 263 262 254 247 248 253 258 258 257 255 252 245 236 232 232 230 225 220 216 214 211 206 198 190 190 199 201 198 198 199
279 279 279 280 282 283 285 285 283 283 285 285 285 285 285 284 283 282 280 280 281 281 279 278 277 277 276 274 273 273 272 272 272 272 271 270 269 269 270 269 268 268 268 267 265 264 261 258 256 255 253 253 253 254 258 262 264 261 254 247 246 250 254 255 255 252 249 245 241 239 235 229 225 221 216 213 209 200 192 191 197 202 202 203 207
283 282 283 285 285 286 287 287 286 285 286 286 286 285 286 285 284 282 281 281 282 282 280 279 278 277 276 275 276 275 273 272 272 272 272 272 271 271 272 271 270 269 268 266 263 261 259 258 255 254 253 252 252 252 255 261 264 265 262 255 249 249 251 253 252 249 248 246 244 242 237 233 232 229 222 216 210 204 199 196 195 198 202 207 210
287 287 288 290 291 289 288 289 288 287 289 288 287 286 285 283 282 281 282 282 282 281 280 280 278 277 276 277 277 276 274 272 270 269 269 269 269 270 269 268 268 267 266 265 262 259 257 256 254 253 251 250 251 250 249 253 259 262 261 259 256 253 251 251 249 245 244 243 241 237 232 231 233 233 228 221 213 210 210 206 201 199 201 204 206
293 293 292 292 293 292 291 290 289 288 290 290 289 288 286 284 283 282 281 282 282 281 280 280 280 279 279 278 277 275 273 271 270 269 270 270 269 268 267 267 267 265 264 263 261 258 257 255 253 252 250 249 249 248 245 245 250 255 256 255 257 256 254 253 250 246 243 240 237 234 230 230 233 234 233 227 219 215 212 206 199 195 194 193 195
296 296 295 294 294 294 293 293 292 290 290 290 289 288 286 286 285 283 282 283 283 281 281 281 280 280 279 279 279 278 274 270 271 273 274 276 276 272 269 268 266 263 261 261 259 257 255 253 251 251 250 249 247 245 243 242 244 249 253 253 253 254 254 255 252 247 244 241 239 238 236 235 235 236 235 230 223 215 207 200 194 190 187 185 187
299 298 298 297 296 296 294 293 292 291 290 290 289 286 285 287 288 286 285 285 283 282 282 283 283 282 281 281 282 280 277 275 275 275 276 278 280 277 272 268 264 260 257 256 255 254 252 251 250 248 247 247 246 242 240 240 241 244 248 251 253 251 250 251 251 246 241 239 238 237 237 235 234 235 236 230 223 216 209 203 198 191 186 186 188
301 300 299 298 297 295 293 291 290 290 288 288 289 286 284 286 286 285 286 285 284 283 283 283 283 283 282 283 283 281 279 278 276 274 275 277 279 278 272 266 262 260 257 254 251 251 252 251 249 247 245 244 243 240 237 238 239 241 244 248 251 248 243 245 252 250 241 235 234 232 233 232 229 230 234 231 224 220 216 210 203 193 187 189 192
303 300 299 300 297 293 294 295 294 292 290 288 289 288 286 286 287 287 286 286 287 289 288 285 284 285 285 285 285 284 281 279 276 273 275 276 276 276 271 263 258 256 256 254 251 249 249 248 247 246 244 242 240 237 234 235 237 238 240 244 245 242 239 242 253 256 247 239 236 233 232 230 226 226 229 228 225 223 220 215 207 198 190 189 193
303 301 300 302 300 296 296 297 297 296 295 294 293 292 290 290 290 288 287 288 291 293 292 290 289 289 289 288 288 285 282 280 278 276 275 275 275 274 268 260 255 252 250 252 253 249 245 244 244 243 242 242 240 236 232 232 235 236 236 238 240 240 239 240 246 253 253 248 240 235 232 231 229 228 227 227 225 222 218 214 209 202 194 192 196
304 304 302 302 301 299 296 296 297 298 298 297 296 296 295 291 288 290 294 296 296 294 294 296 296 295 294 292 290 287 284 282 281 278 275 272 272 271 266 258 253 250 247 247 248 247 242 239 239 240 240 240 239 236 230 228 232 234 233 233 234 236 239 238 238 243 248 247 242 237 234 231 229 228 226 223 222 220 216 213 211 206 199 198 204
305 307 305 302 302 299 296 297 298 298 298 298 298 297 294 291 293 299 303 303 301 301 301 303 302 299 297 294 291 288 286 284 282 279 274 270 268 267 265 258 251 247 246 244 243 243 240 235 233 236 239 238 236 234 230 228 230 233 234 233 231 229 231 234 235 237 239 241 240 240 238 234 230 228 225 221 218 218 217 214 212 209 201 199 204
307 306 303 301 301 299 298 298 298 299 301 301 298 296 294 296 302 306 307 307 308 309 308 307 305 302 299 298 295 292 288 285 281 276 272 269 266 263 262 258 251 246 244 242 240 239 237 234 232 233 236 235 233 233 232 231 230 231 234 238 235 228 225 227 231 233 234 236 236 237 237 237 235 230 228 224 220 220 220 215 212 209 204 199 199
308 305 301 298 298 299 300 300 300 302 303 300 298 298 299 304 309 309 308 310 314 313 311 310 309 307 305 302 299 296 293 289 284 278 273 269 264 259 257 256 251 245 241 239 237 237 236 233 231 231 232 232 232 233 234 233 231 230 235 240 236 227 221 223 227 230 231 232 232 233 235 238 238 234 230 228 223 219 217 214 210 209 207 203 200
305 303 300 299 299 300 302 303 304 304 302 300 300 302 304 309 312 310 311 315 318 317 315 315 314 312 309 305 302 299 297 292 287 281 275 268 262 256 252 251 248 244 241 238 236 235 234 232 229 228 228 229 231 233 235 233 230 231 235 237 233 224 219 220 224 228 230 230 228 230 233 235 236 235 231 227 224 219 215 212 208 208 209 206 200
303 301 301 301 303 304 306 307 305 302 301 302 304 306 310 314 315 313 317 322 324 321 319 319 318 316 312 309 305 302 299 295 289 282 273 264 257 251 247 245 242 239 238 236 233 230 229 228 227 226 224 225 229 233 234 231 229 230 233 234 230 224 219 219 223 228 231 231 229 229 232 232 234 236 230 223 222 220 216 213 209 207 208 205 199
303 302 302 303 306 307 308 306 303 302 304 307 309 311 314 317 316 317 324 329 328 326 324 321 320 319 317 314 312 309 306 301 295 288 278 267 257 248 241 239 237 233 231 230 228 226 224 224 223 222 221 222 226 231 233 230 226 227 230 231 230 225 220 220 224 228 232 234 233 232 232 231 235 237 228 219 217 216 212 209 207 206 205 202 199
304 302 303 306 308 310 309 305 303 305 307 311 312 311 312 315 317 320 330 333 331 330 328 325 325 327 325 321 319 317 313 308 302 296 286 274 261 249 238 233 232 229 225 222 221 221 221 220 219 220 220 220 223 228 231 230 227 226 228 230 228 225 221 220 222 225 228 231 232 230 228 228 230 229 220 213 212 211 206 204 203 203 203 202 202
304 304 308 309 309 310 308 304 306 309 311 313 313 310 312 319 322 325 332 334 333 337 338 335 334 335 331 325 324 321 317 313 312 306 293 276 262 250 238 229 226 223 219 215 213 213 212 213 214 216 216 217 219 223 225 227 227 227 229 230 227 222 220 220 220 221 222 225 226 225 224 225 224 218 210 208 209 208 204 200 200 202 202 202 204
305 307 309 309 309 310 307 307 312 316 315 314 312 312 316 323 327 334 338 336 336 345 350 346 343 343 337 332 332 331 325 320 320 315 300 281 265 249 232 220 217 215 209 204 203 202 202 205 208 209 211 213 216 219 221 223 224 224 225 226 224 221 218 218 218 218 219 220 221 220 220 223 225 220 213 210 210 209 205 200 199 203 205 205 204
306 308 310 311 311 309 308 311 317 320 318 315 314 317 320 323 328 338 343 340 342 353 357 353 351 350 345 341 344 344 335 327 328 327 316 293 264 232 212 205 207 207 200 195 197 197 197 199 202 203 205 208 212 215 218 221 222 221 219 218 219 219 218 218 219 218 217 217 218 216 215 218 222 220 216 212 209 207 204 201 200 203 206 206 204
307 310 314 315 312 312 314 316 318 319 318 317 317 320 322 324 330 337 339 339 347 359 2 359 359 358 353 353 0 360 348 337 339 345 347 339 209 185 187 191 195 195 191 190 192 194 194 196 198 199 200 204 209 214 216 219 221 220 217 215 215 217 219 220 220 218 216 216 216 214 214 217 218 214 211 210 208 204 201 199 200 203 204 203 203
307 313 319 319 317 319 319 316 315 318 319 318 319 321 326 330 333 338 341 345 353 1 4 5 8 8 4 5 11 13 9 0 358 6 20 46 115 156 174 181 183 185 187 188 190 191 192 194 196 197 198 202 209 213 214 217 220 219 216 214 216 219 221 219 217 216 215 214 215 213 212 216 218 215 211 209 207 204 202 199 199 200 201 200 199
310 316 322 321 319 319 315 313 317 320 317 316 319 324 330 336 338 343 350 357 3 5 5 7 12 13 13 14 20 28 33 28 19 23 41 72 112 141 161 172 176 181 187 188 189 190 189 188 190 193 196 201 209 211 210 214 219 218 214 213 214 219 221 218 214 213 213 213 214 213 211 211 213 212 210 207 204 203 204 203 199 198 200 201 198
319 322 323 320 318 320 320 321 324 320 315 318 326 333 338 341 344 348 357 6 11 11 10 10 13 16 21 25 29 39 49 49 47 53 67 92 118 136 152 164 173 181 185 185 185 185 184 183 184 188 194 202 207 208 208 214 218 216 211 211 213 218 221 218 213 211 213 214 214 213 213 213 213 213 211 208 205 203 203 203 200 199 202 202 199
330 328 323 322 322 325 328 329 326 321 321 330 344 349 346 346 349 356 5 14 17 17 16 16 16 20 25 27 30 40 53 64 79 93 101 116 130 140 152 162 169 176 178 179 180 180 181 183 185 188 195 203 204 204 208 214 215 213 212 214 218 222 224 222 216 212 213 213 212 212 213 214 215 215 211 207 206 205 203 202 201 201 202 201 198
332 328 324 326 327 327 329 330 327 328 336 349 355 352 351 352 356 5 14 20 22 21 23 22 21 22 25 26 30 42 56 71 87 93 98 113 125 132 142 152 158 162 165 168 172 175 179 185 190 193 200 204 203 204 209 210 210 212 215 219 223 226 226 224 219 215 213 212 211 213 213 212 212 212 208 203 202 201 199 198 198 198 196 196 196
329 330 336 337 331 328 328 330 334 343 354 358 354 354 355 358 3 12 20 24 25 25 27 28 26 26 29 31 34 44 54 62 68 72 80 95 109 119 131 141 148 153 158 162 168 172 177 185 193 202 210 209 205 206 209 211 213 217 221 224 226 228 227 223 218 214 212 210 210 209 208 207 208 208 205 201 198 195 193 194 194 193 193 194 197
328 338 352 344 333 331 337 341 346 354 359 355 354 358 1 4 11 18 23 26 28 29 31 32 30 30 34 37 38 43 52 58 61 65 73 85 97 109 120 129 134 143 152 162 172 181 187 191 200 210 213 206 200 203 208 215 221 226 229 229 229 227 224 221 217 213 210 210 210 205 202 202 204 202 200 198 196 194 193 194 194 196 199 201 202
335 347 355 346 342 354 8 4 358 0 1 359 2 8 10 13 18 22 25 28 30 32 35 37 35 35 40 44 44 45 50 55 59 63 68 76 85 95 104 113 122 133 143 154 171 188 200 206 210 214 210 201 200 204 210 215 221 227 230 230 227 224 222 220 217 213 209 208 208 205 202 202 203 200 197 197 197 197 197 197 197 198 201 201 200
351 350 349 354 7 17 15 9 9 16 19 18 19 20 21 22 23 24 27 30 32 33 38 41 41 41 44 47 49 50 51 53 57 61 65 70 77 83 89 97 108 123 140 154 169 190 209 218 219 218 215 211 212 216 218 218 218 220 223 223 222 222 222 219 216 213 209 206 205 203 202 203 204 201 196 196 197 197 197 198 197 197 197 197 197
5 358 4 23 32 22 14 20 31 31 28 27 26 27 28 27 25 27 32 35 35 36 39 43 45 46 46 47 51 54 53 54 56 58 61 66 72 77 82 87 93 103 120 137 148 167 192 209 217 222 224 224 225 226 226 223 220 218 217 217 216 217 218 217 215 211 205 202 202 201 200 199 200 199 196 196 196 196 196 196 194 193 193 195 197
22 27 41 51 45 26 26 37 38 28 24 28 30 30 29 27 27 31 36 39 39 38 41 43 46 47 47 47 50 52 53 54 56 58 60 63 68 73 78 83 87 92 98 105 113 126 145 168 187 200 209 216 220 222 220 217 215 215 215 215 214 214 215 215 213 208 201 197 198 200 198 196 196 197 196 195 196 196 195 195 194 193 193 194 195
40 61 67 62 47 34 35 36 29 21 22 30 34 33 29 28 32 36 38 39 40 40 42 44 46 48 49 49 48 50 53 56 58 60 61 63 65 68 72 77 82 86 88 88 92 99 109 122 137 152 165 178 189 197 202 203 204 205 207 210 214 215 214 212 209 206 202 198 195 194 193 192 193 193 193 193 194 195 195 195 195 193 193 193 192
53 71 74 65 49 35 29 24 19 18 24 33 38 35 31 36 42 42 39 40 41 42 43 45 46 48 50 50 50 50 53 56 60 62 64 65 66 67 69 72 76 80 83 84 85 87 90 97 106 118 129 139 152 166 176 182 186 188 191 195 200 202 202 201 199 199 200 198 194 192 190 187 186 187 188 190 191 191 191 191 192 190 190 189 187
60 66 68 63 51 37 28 25 23 23 27 36 41 40 41 47 48 45 41 41 42 42 44 46 47 48 50 51 52 53 54 57 60 63 66 68 69 69 70 71 72 74 77 79 81 83 84 85 89 96 105 115 127 140 152 161 168 171 173 176 179 181 183 185 185 185 188 191 191 191 189 185 183 184 185 185 185 185 184 184 184 184 182 178 173
56 55 54 54 50 42 37 35 31 27 33 43 50 54 56 54 50 46 43 41 42 43 44 45 46 48 50 51 52 54 56 58 60 62 65 68 70 71 71 71 71 72 73 74 76 78 80 81 83 86 91 98 106 114 123 134 145 150 154 157 161 166 172 177 177 175 177 180 181 184 184 181 178 179 179 178 178 178 177 173 171 170 168 162 157
56 54 52 54 55 55 55 56 53 50 53 58 61 62 60 53 48 45 43 42 42 44 44 45 46 48 49 50 52 54 55 57 59 61 63 66 69 71 71 70 70 71 72 72 72 73 75 76 78 81 83 86 89 94 99 105 112 118 125 133 141 149 159 166 167 168 170 170 170 171 171 167 163 164 166 167 167 165 163 159 155 154 153 151 150
60 59 59 62 64 64 66 68 67 65 64 64 61 58 54 48 43 41 42 44 46 46 45 46 48 49 49 51 52 52 54 55 57 59 62 64 66 68 69 69 69 70 71 71 71 72 72 73 74 76 78 80 82 83 84 87 91 96 102 110 118 127 137 145 149 153 157 159 159 159 159 156 151 151 153 155 154 152 150 148 147 148 147 146 145
59 58 59 62 66 66 66 65 63 61 61 60 54 48 43 42 41 40 42 46 48 48 49 50 51 51 52 53 53 54 55 56 56 58 60 62 63 65 66 67 68 68 69 70 71 72 73 74 74 74 75 77 79 80 80 81 83 86 91 97 102 106 112 118 123 128 133 137 138 140 141 141 139 138 139 141 142 141 141 141 142 144 145 144 143